Clinton, IA

9:59 AM CDT on August 20, 2017 (GMT -0500)
Clinton Municipal

Weather History for KCWI - October, 2014

Change the Weather History Date:

Friday, October 17, 2014

  Actual Average Record
Temperature  
Mean Temperature 50 °F -  
Max Temperature 55 °F 63 °F 88 °F (1950)
Min Temperature 44 °F 40 °F 24 °F (1992)
Degree Days  
Heating Degree Days 16    
Moisture  
Dew Point 43 °F    
Average Humidity 73    
Maximum Humidity 87    
Minimum Humidity 63    
Precipitation  
Precipitation 0.00 in - - ()
Sea Level Pressure  
Sea Level Pressure 29.77 in    
Wind  
Wind Speed 10 mph (WNW)    
Max Wind Speed 21 mph    
Max Gust Speed 29 mph    
Visibility 10 miles    
Events      
Averages and records for this station are not official NWS values.
T = Trace of Precipitation, MM = Missing Value Source: NWS Daily Summary

Daily Weather History Graph

Daily Weather History Graph

Search for Another Location

Airport or City:

Trip Planner

Search our weather history database for the weather conditions in past years. The results will help you decide how hot, cold, wet, or windy it might be!

Date:

Astronomy

Oct. 17, 2014 Rise Set
Actual Time 7:15 AM CDT 6:16 PM CDT
Civil Twilight 6:47 AM CDT 6:44 PM CDT
Nautical Twilight 6:15 AM CDT 7:17 PM CDT
Astronomical Twilight 5:43 AM CDT 7:49 PM CDT
Moon 1:15 AM CDT (10/17) 3:08 PM CDT (10/17)
Length of Visible Light 11h 57m
Length of Day
11h 00m
Waning Crescent, 32% of the Moon is Illuminated
Oct 17
Waning Crescent
Oct 23
New
Oct 30
First Quarter
Nov 6
Full
Nov 14
Last Quarter

Hourly Weather History & Observations

Time (CDT) Temp. Windchill Dew Point Humidity Pressure Visibility Wind Dir Wind Speed Gust Speed Precip Events Conditions
12:15 AM 51.8 °F - 44.6 °F 76% 29.65 in 10.0 mi West 6.9 mph - N/A   Clear
12:35 AM 51.8 °F - 44.6 °F 76% 29.65 in 10.0 mi West 6.9 mph - N/A   Clear
12:55 AM 51.8 °F - 44.6 °F 76% 29.64 in 10.0 mi West 8.1 mph - N/A   Clear
1:15 AM 50.0 °F - 44.6 °F 82% 29.64 in 10.0 mi West 6.9 mph - N/A   Clear
1:35 AM 50.0 °F - 44.6 °F 82% 29.64 in 10.0 mi West 6.9 mph - N/A   Clear
1:55 AM 50.0 °F - 44.6 °F 82% 29.64 in 10.0 mi West 8.1 mph - N/A   Clear
2:15 AM 48.2 °F - 42.8 °F 82% 29.64 in 10.0 mi West 6.9 mph - N/A   Clear
2:35 AM 46.4 °F 42.9 °F 42.8 °F 87% 29.65 in 10.0 mi WNW 6.9 mph - N/A   Clear
2:55 AM 48.2 °F - 42.8 °F 82% 29.64 in 10.0 mi WNW 8.1 mph - N/A   Clear
3:15 AM 46.4 °F 42.9 °F 42.8 °F 87% 29.64 in 10.0 mi WNW 6.9 mph - N/A   Clear
3:35 AM 46.4 °F 42.9 °F 41.0 °F 81% 29.65 in 10.0 mi WNW 6.9 mph - N/A   Clear
3:55 AM 46.4 °F 42.9 °F 41.0 °F 81% 29.65 in 10.0 mi WNW 6.9 mph - N/A   Clear
4:15 AM 46.4 °F 42.4 °F 41.0 °F 81% 29.65 in 10.0 mi West 8.1 mph - N/A   Clear
4:35 AM 46.4 °F 42.9 °F 41.0 °F 81% 29.65 in 10.0 mi West 6.9 mph - N/A   Clear
4:55 AM 46.4 °F 42.4 °F 41.0 °F 81% 29.65 in 10.0 mi West 8.1 mph - N/A   Clear
5:15 AM 46.4 °F 42.9 °F 41.0 °F 81% 29.66 in 10.0 mi West 6.9 mph - N/A   Clear
5:35 AM 44.6 °F 40.2 °F 39.2 °F 81% 29.66 in 10.0 mi West 8.1 mph - N/A   Clear
5:55 AM 44.6 °F 40.7 °F 39.2 °F 81% 29.67 in 10.0 mi West 6.9 mph - N/A   Clear
6:15 AM 44.6 °F 40.2 °F 39.2 °F 81% 29.67 in 10.0 mi West 8.1 mph - N/A   Clear
6:35 AM 44.6 °F 40.2 °F 39.2 °F 81% 29.68 in 10.0 mi West 8.1 mph - N/A   Clear
6:55 AM 46.4 °F 42.4 °F 41.0 °F 81% 29.68 in 10.0 mi West 8.1 mph - N/A   Clear
7:15 AM 46.4 °F 42.4 °F 41.0 °F 81% 29.69 in 10.0 mi West 8.1 mph - N/A   Clear
7:35 AM 46.4 °F 42.4 °F 42.8 °F 87% 29.69 in 10.0 mi West 8.1 mph - N/A   Clear
7:55 AM 48.2 °F - 42.8 °F 82% 29.70 in 10.0 mi West 10.4 mph - N/A   Clear
8:15 AM 48.2 °F - 42.8 °F 82% 29.71 in 10.0 mi West 9.2 mph 16.1 mph N/A   Clear
8:35 AM 50.0 °F - 42.8 °F 76% 29.71 in 10.0 mi West 10.4 mph 16.1 mph N/A   Clear
8:55 AM 51.8 °F - 44.6 °F 76% 29.71 in 10.0 mi West 13.8 mph 18.4 mph N/A   Clear
9:15 AM 51.8 °F - 44.6 °F 76% 29.71 in 10.0 mi WNW 13.8 mph 21.9 mph N/A   Clear
9:35 AM 53.6 °F - 44.6 °F 72% 29.72 in 10.0 mi WNW 11.5 mph 21.9 mph N/A   Scattered Clouds
9:55 AM 53.6 °F - 44.6 °F 72% 29.73 in 10.0 mi West 15.0 mph 19.6 mph N/A   Overcast
10:15 AM 53.6 °F - 44.6 °F 72% 29.74 in 10.0 mi West 13.8 mph 20.7 mph N/A   Overcast
10:35 AM 53.6 °F - 44.6 °F 72% 29.74 in 10.0 mi West 15.0 mph 23.0 mph N/A   Overcast
10:55 AM 55.4 °F - 44.6 °F 67% 29.74 in 10.0 mi WNW 13.8 mph 20.7 mph N/A   Overcast
11:15 AM 55.4 °F - 44.6 °F 67% 29.75 in 10.0 mi WNW 15.0 mph 20.7 mph N/A   Overcast
11:35 AM 55.4 °F - 44.6 °F 67% 29.76 in 10.0 mi WNW 13.8 mph 25.3 mph N/A   Overcast
11:55 AM 55.4 °F - 44.6 °F 67% 29.76 in 10.0 mi WNW 12.7 mph 25.3 mph N/A   Overcast
12:15 PM 55.4 °F - 42.8 °F 63% 29.76 in 10.0 mi WNW 15.0 mph 21.9 mph N/A   Overcast
12:35 PM 55.4 °F - 44.6 °F 67% 29.76 in 10.0 mi WNW 17.3 mph 21.9 mph N/A   Overcast
12:55 PM 55.4 °F - 42.8 °F 63% 29.77 in 10.0 mi WNW 15.0 mph 26.5 mph N/A   Overcast
1:15 PM 55.4 °F - 42.8 °F 63% 29.77 in 10.0 mi WNW 18.4 mph 24.2 mph N/A   Overcast
1:35 PM 55.4 °F - 42.8 °F 63% 29.78 in 10.0 mi WNW 12.7 mph 21.9 mph N/A   Overcast
1:55 PM 55.4 °F - 42.8 °F 63% 29.78 in 10.0 mi WNW 17.3 mph 24.2 mph N/A   Overcast
2:15 PM 55.4 °F - 42.8 °F 63% 29.78 in 10.0 mi NW 20.7 mph 28.8 mph N/A   Overcast
2:35 PM 55.4 °F - 42.8 °F 63% 29.79 in 10.0 mi WNW 19.6 mph 26.5 mph N/A   Overcast
2:55 PM 55.4 °F - 42.8 °F 63% 29.80 in 10.0 mi WNW 17.3 mph 25.3 mph N/A   Overcast
3:15 PM 55.4 °F - 42.8 °F 63% 29.80 in 10.0 mi WNW 18.4 mph 24.2 mph N/A   Overcast
3:35 PM 55.4 °F - 42.8 °F 63% 29.81 in 10.0 mi WNW 19.6 mph 24.2 mph N/A   Overcast
3:55 PM 55.4 °F - 42.8 °F 63% 29.82 in 10.0 mi WNW 19.6 mph 25.3 mph N/A   Overcast
4:15 PM 55.4 °F - 42.8 °F 63% 29.84 in 10.0 mi WNW 12.7 mph 26.5 mph N/A   Overcast
4:35 PM 55.4 °F - 42.8 °F 63% 29.84 in 10.0 mi NW 17.3 mph 24.2 mph N/A   Overcast
4:55 PM 55.4 °F - 42.8 °F 63% 29.84 in 10.0 mi WNW 20.7 mph 27.6 mph N/A   Overcast
5:15 PM 53.6 °F - 42.8 °F 67% 29.86 in 10.0 mi WNW 17.3 mph 23.0 mph N/A   Overcast
5:35 PM 53.6 °F - 42.8 °F 67% 29.87 in 10.0 mi NW 16.1 mph 23.0 mph N/A   Overcast
5:55 PM 53.6 °F - 42.8 °F 67% 29.87 in 10.0 mi NW 15.0 mph 25.3 mph N/A   Overcast
6:15 PM 53.6 °F - 42.8 °F 67% 29.88 in 10.0 mi NW 12.7 mph 18.4 mph N/A   Overcast
6:35 PM 53.6 °F - 42.8 °F 67% 29.88 in 10.0 mi WNW 10.4 mph 17.3 mph N/A   Overcast
6:55 PM 53.6 °F - 42.8 °F 67% 29.89 in 10.0 mi WNW 12.7 mph 16.1 mph N/A   Overcast
7:15 PM 53.6 °F - 42.8 °F 67% 29.90 in 10.0 mi WNW 12.7 mph 16.1 mph N/A   Overcast
7:35 PM 53.6 °F - 42.8 °F 67% 29.91 in 10.0 mi WNW 11.5 mph 16.1 mph N/A   Overcast
7:55 PM 53.6 °F - 42.8 °F 67% 29.92 in 10.0 mi WNW 13.8 mph 17.3 mph N/A   Overcast
8:15 PM 53.6 °F - 42.8 °F 67% 29.93 in 10.0 mi WNW 13.8 mph 17.3 mph N/A   Overcast
8:35 PM 53.6 °F - 42.8 °F 67% 29.93 in 10.0 mi WNW 15.0 mph 21.9 mph N/A   Overcast
8:55 PM 51.8 °F - 42.8 °F 71% 29.94 in 10.0 mi WNW 11.5 mph 16.1 mph N/A   Overcast
9:15 PM 51.8 °F - 42.8 °F 71% 29.94 in 10.0 mi WNW 9.2 mph 16.1 mph N/A   Overcast
9:35 PM 51.8 °F - 42.8 °F 71% 29.95 in 10.0 mi NW 9.2 mph - N/A   Overcast
9:55 PM 51.8 °F - 42.8 °F 71% 29.95 in 10.0 mi WNW 8.1 mph - N/A   Mostly Cloudy
10:15 PM 51.8 °F - 42.8 °F 71% 29.96 in 10.0 mi WNW 5.8 mph - N/A   Mostly Cloudy
10:35 PM 51.8 °F - 42.8 °F 71% 29.97 in 10.0 mi WNW 6.9 mph - N/A   Overcast
10:55 PM 51.8 °F - 44.6 °F 76% 29.97 in 10.0 mi NW 9.2 mph 16.1 mph N/A   Overcast
11:15 PM 51.8 °F - 44.6 °F 76% 29.97 in 10.0 mi NW 9.2 mph - N/A   Overcast
11:35 PM 51.8 °F - 44.6 °F 76% 29.98 in 10.0 mi NW 11.5 mph - N/A   Mostly Cloudy
11:55 PM 51.8 °F - 44.6 °F 76% 29.99 in 10.0 mi NNW 10.4 mph - N/A   Mostly Cloudy